Consulta los datos en tiempo real de la estación meteorológica de Cercs - La Baells
| Hora UTC | 04:55 |
|---|---|
| Temperatura | 10.8 ºC |
| Humedad | 92.1 % |
| Presión | 1012.2 hPa |
| Pluja | 0.0 mm |
| Velocidad viento | 0.2 km/h |
| Dirección viento | SSE |
| Temperatura (ºC) | Humedad (%) | Presión (hPa) | Velocidad viento (km/h) | Precipitación (mm) | ||||||||||||
|---|---|---|---|---|---|---|---|---|---|---|---|---|---|---|---|---|
| Hora UTC | Aire | Humedad | Presión | Vel. | Dir. | Vel. Max | Dir. | Intent. máx 5 min. | ||||||||
| 00:05 | 12.3 | 83.7 | 1013.2 | 0.2 | NE | 0.2 | ESE | 0.0 | ||||||||
| 00:10 | 12.3 | 84.7 | 1013.2 | 0.1 | SE | 0.2 | ESE | 0.0 | ||||||||
| 00:15 | 12.3 | 84.9 | 1013.2 | 0.1 | SSE | 0.2 | ESE | 0.0 | ||||||||
| 00:20 | 12.3 | 85.8 | 1013.2 | 0.1 | E | 0.2 | ESE | 0.0 | ||||||||
| 00:25 | 12.3 | 86.0 | 1013.2 | 0.1 | ENE | 0.2 | ESE | 0.0 | ||||||||
| 00:30 | 12.3 | 85.9 | 1013.2 | 0.2 | SW | 0.2 | ESE | 0.0 | ||||||||
| 00:35 | 12.3 | 85.9 | 1013.2 | 0.2 | W | 0.2 | ESE | 0.0 | ||||||||
| 00:40 | 12.2 | 86.6 | 1013.2 | 0.2 | WSW | 0.2 | ESE | 0.0 | ||||||||
| 00:45 | 12.2 | 86.8 | 1013.2 | 0.2 | WSW | 0.2 | ESE | 0.0 | ||||||||
| 00:50 | 12.0 | 87.3 | 1013.2 | 0.2 | WSW | 0.2 | ESE | 0.0 | ||||||||
| 00:55 | 12.0 | 87.4 | 1013.2 | 0.2 | WSW | 0.2 | ESE | 0.0 | ||||||||
| 01:00 | 12.0 | 88.1 | 1013.2 | 0.2 | W | 0.2 | ESE | 0.0 | ||||||||
| 01:05 | 12.0 | 88.3 | 1013.2 | 0.2 | W | 0.2 | ESE | 0.0 | ||||||||
| 01:10 | 11.9 | 88.8 | 1013.2 | 0.1 | W | 0.2 | ESE | 0.0 | ||||||||
| 01:15 | 11.9 | 88.9 | 1013.2 | 0.1 | WNW | 0.2 | ESE | 0.0 | ||||||||
| 01:20 | 11.8 | 89.1 | 1013.2 | 0.2 | WSW | 0.2 | ESE | 0.0 | ||||||||
| 01:25 | 11.7 | 89.1 | 1013.2 | 0.2 | WSW | 0.2 | ESE | 0.0 | ||||||||
| 01:30 | 11.7 | 89.9 | 1012.4 | 0.2 | WSW | 0.2 | ESE | 0.0 | ||||||||
| 01:35 | 11.7 | 90.1 | 1012.2 | 0.2 | W | 0.2 | ESE | 0.0 | ||||||||
| 01:40 | 11.6 | 90.1 | 1012.2 | 0.1 | SSE | 0.2 | ESE | 0.0 | ||||||||
| 01:45 | 11.6 | 90.1 | 1012.2 | 0.1 | ESE | 0.2 | ESE | 0.0 | ||||||||
| 01:50 | 11.6 | 91.2 | 1012.2 | 0.2 | ENE | 0.2 | ESE | 0.0 | ||||||||
| 01:55 | 11.6 | 91.5 | 1012.2 | 0.2 | ENE | 0.2 | ESE | 0.0 | ||||||||
| 01:55 | 11.6 | 91.5 | 1012.2 | 0.2 | ENE | 0.2 | ESE | 0.0 | ||||||||
| 01:55 | 11.6 | 91.5 | 1012.2 | 0.2 | ENE | 0.2 | ESE | 0.0 | ||||||||
| 02:15 | 11.4 | 91.3 | 1012.2 | 0.1 | SE | 0.2 | ESE | 0.0 | ||||||||
| 02:20 | 11.4 | 91.7 | 1012.2 | 0.1 | SSE | 0.2 | ESE | 0.0 | ||||||||
| 02:25 | 11.3 | 91.8 | 1012.2 | 0.1 | SSE | 0.2 | ESE | 0.0 | ||||||||
| 02:30 | 11.3 | 91.9 | 1012.2 | 0.2 | SSW | 0.2 | ESE | 0.0 | ||||||||
| 02:35 | 11.3 | 91.9 | 1012.2 | 0.2 | SSW | 0.2 | ESE | 0.0 | ||||||||
| 02:40 | 11.2 | 92.7 | 1012.2 | 0.1 | SSW | 0.2 | ESE | 0.0 | ||||||||
| 02:45 | 11.2 | 92.9 | 1012.2 | 0.1 | SSW | 0.2 | ESE | 0.0 | ||||||||
| 02:50 | 11.2 | 93.3 | 1012.2 | 0.1 | SW | 0.2 | ESE | 0.0 | ||||||||
| 02:55 | 11.3 | 93.4 | 1012.2 | 0.1 | SW | 0.2 | ESE | 0.0 | ||||||||
| 03:00 | 11.1 | 93.2 | 1012.2 | 0.2 | SSE | 0.2 | ESE | 0.0 | ||||||||
| 03:05 | 11.1 | 93.1 | 1012.2 | 0.2 | SSE | 0.2 | ESE | 0.0 | ||||||||
| 03:10 | 10.9 | 93.0 | 1012.2 | 1.0 | WSW | 1.0 | WSW | 0.0 | ||||||||
| 03:15 | 10.9 | 93.0 | 1012.2 | 1.2 | W | 1.2 | W | 0.0 | ||||||||
| 03:20 | 10.8 | 92.8 | 1012.2 | 0.7 | W | 1.2 | W | 0.0 | ||||||||
| 03:25 | 10.7 | 92.7 | 1012.2 | 0.5 | W | 1.2 | W | 0.0 | ||||||||
| 03:30 | 10.8 | 92.5 | 1012.2 | 0.1 | WSW | 1.2 | W | 0.0 | ||||||||
| 03:35 | 10.8 | 92.4 | 1012.2 | 0.0 | WSW | 1.2 | W | 0.0 | ||||||||
| 03:40 | 10.9 | 91.8 | 1012.2 | 0.1 | SE | 1.2 | W | 0.0 | ||||||||
| 03:45 | 10.9 | 91.7 | 1012.2 | 0.1 | ESE | 1.2 | W | 0.0 | ||||||||
| 03:50 | 10.8 | 92.1 | 1012.2 | 0.1 | WSW | 1.2 | W | 0.0 | ||||||||
| 03:55 | 10.8 | 92.2 | 1012.2 | 0.1 | WNW | 1.2 | W | 0.0 | ||||||||
| 04:00 | 10.7 | 92.9 | 1012.2 | 0.1 | SE | 1.2 | W | 0.0 | ||||||||
| 04:05 | 10.7 | 93.1 | 1012.2 | 0.1 | ESE | 1.2 | W | 0.0 | ||||||||
| 04:10 | 10.7 | 93.3 | 1012.2 | 0.1 | E | 1.2 | W | 0.0 | ||||||||
| 04:15 | 10.7 | 93.4 | 1012.2 | 0.1 | E | 1.2 | W | 0.0 | ||||||||
| 04:20 | 10.8 | 92.8 | 1012.2 | 0.1 | ESE | 1.2 | W | 0.0 | ||||||||
| 04:25 | 10.8 | 92.7 | 1012.2 | 0.1 | ESE | 1.2 | W | 0.0 | ||||||||
| 04:30 | 10.8 | 92.4 | 1012.2 | 0.1 | SE | 1.2 | W | 0.0 | ||||||||
| 04:35 | 10.8 | 92.3 | 1012.2 | 0.2 | SE | 1.2 | W | 0.0 | ||||||||
| 04:40 | 10.8 | 92.3 | 1012.2 | 0.2 | SE | 1.2 | W | 0.0 | ||||||||
| 04:45 | 10.8 | 92.3 | 1012.2 | 0.2 | SE | 1.2 | W | 0.0 | ||||||||
| 04:50 | 10.8 | 92.1 | 1012.2 | 0.2 | SSE | 1.2 | W | 0.0 | ||||||||
| 04:55 | 10.8 | 92.1 | 1012.2 | 0.2 | SSE | 1.2 | W | 0.0 | ||||||||
| Máxima | 12.3 | 93.4 | 1013.2 | 1.2 | W | 1.2 | W | 0.0 | ||||||||
| Mínima | 10.7 | 83.7 | 1012.2 | |||||||||||||
| Total | 0.0 | |||||||||||||||